Location: Drocourt
(49.0571°N, 1.7669°E)
Time: 13:19:59
(UTC+00:00)

SR - Pass Details

Date: 16 April 2024
Orbit: 579 x 859 km, 66.7° (Epoch: 28 May)

Event Time Altitude Azimuth Distance (km) Brightness Sun altitude
Rises 11:51:50 0° 317° (NW) 2,992 ? 51.3°
Reaches altitude 10° 11:54:24 10° 308° (NW) 2,032 ? 51.3°
Maximum altitude 11:58:23 31° 247° (WSW) 1,090 ? 51.3°
Drops below altitude 10° 12:02:09 10° 185° (S) 1,919 ? 51.3°
Sets 12:04:31 0° 174° (S) 2,796 ? 51.3°
